OOSKB EBAW-EBAW

Flight info

Callsign OOSKB
Flight time 0h 22m
Altitude 2000
Route DCT
Aircraft DA40/L-V/N

Departure

Time 2026-05-05 11:07
Airport Antwerp International Airport (Deurne) (EBAW)

Arrival

Time 2026-05-05 11:30
Airport Antwerp International Airport (Deurne) (EBAW)
Time Latitude Longitude Altitude Speed Heading
2026-05-05 10:45 51.18724 4.45467 29 ft 0 kts 218°
2026-05-05 10:46 51.18724 4.45468 34 ft 0 kts 218°
2026-05-05 10:47 51.18724 4.45467 -32 ft 0 kts 218°
2026-05-05 10:48 51.18724 4.45468 34 ft 0 kts 218°
2026-05-05 10:57 51.18724 4.45467 34 ft 0 kts 218°
2026-05-05 10:57 51.18714 4.45446 34 ft 3 kts 272°
2026-05-05 10:57 51.18730 4.45415 34 ft 3 kts 343°
2026-05-05 10:58 51.18746 4.45426 34 ft 4 kts 55°
2026-05-05 10:58 51.18766 4.45480 34 ft 4 kts 81°
2026-05-05 10:58 51.18754 4.45537 34 ft 10 kts 101°
2026-05-05 10:58 51.18737 4.45646 34 ft 10 kts 105°
2026-05-05 10:59 51.18725 4.45724 34 ft 7 kts 105°
2026-05-05 10:59 51.18714 4.45806 34 ft 8 kts 101°
2026-05-05 10:59 51.18703 4.45865 35 ft 8 kts 107°
2026-05-05 10:59 51.18686 4.45961 35 ft 9 kts 102°
2026-05-05 11:00 51.18672 4.46057 35 ft 8 kts 107°
2026-05-05 11:00 51.18659 4.46138 35 ft 7 kts 102°
2026-05-05 11:00 51.18645 4.46229 35 ft 11 kts 103°
2026-05-05 11:00 51.18629 4.46332 34 ft 9 kts 106°
2026-05-05 11:01 51.18614 4.46425 34 ft 8 kts 104°
2026-05-05 11:01 51.18599 4.46513 34 ft 8 kts 103°
2026-05-05 11:01 51.18585 4.46604 34 ft 9 kts 102°
2026-05-05 11:01 51.18577 4.46729 34 ft 11 kts 90°
2026-05-05 11:02 51.18584 4.46832 34 ft 9 kts 77°
2026-05-05 11:02 51.18606 4.46928 34 ft 9 kts 64°
2026-05-05 11:02 51.18637 4.47004 34 ft 7 kts 51°
2026-05-05 11:02 51.18674 4.47079 34 ft 9 kts 53°
2026-05-05 11:03 51.18695 4.47126 34 ft 1 kts 60°
2026-05-05 11:03 51.18699 4.47134 34 ft 0 kts 38°
2026-05-05 11:04 51.18708 4.47148 34 ft 5 kts 53°
2026-05-05 11:05 51.18715 4.47168 34 ft 0 kts 62°
2026-05-05 11:05 51.18723 4.47186 34 ft 3 kts 45°
2026-05-05 11:05 51.18737 4.47213 34 ft 5 kts 44°
2026-05-05 11:05 51.18757 4.47252 33 ft 3 kts 39°
2026-05-05 11:06 51.18776 4.47262 33 ft 1 kts 344°
2026-05-05 11:06 51.18786 4.47245 33 ft 0 kts 286°
2026-05-05 11:06 51.18789 4.47227 33 ft 15 kts 279°
2026-05-05 11:06 51.18886 4.46907 34 ft 45 kts 286°
2026-05-05 11:07 51.19014 4.46232 92 ft 73 kts 296°
2026-05-05 11:07 51.19185 4.45464 268 ft 78 kts 296°
2026-05-05 11:07 51.19369 4.44635 487 ft 83 kts 278°
2026-05-05 11:07 51.19007 4.43921 687 ft 91 kts 193°
2026-05-05 11:08 51.18397 4.43857 861 ft 91 kts 143°
2026-05-05 11:08 51.18038 4.44637 1103 ft 85 kts 111°
2026-05-05 11:08 51.17524 4.45127 1261 ft 108 kts 175°
2026-05-05 11:08 51.16747 4.45131 1395 ft 115 kts 174°
2026-05-05 11:09 51.15937 4.45152 1492 ft 119 kts 173°
2026-05-05 11:09 51.15137 4.45273 1618 ft 113 kts 174°
2026-05-05 11:09 51.14382 4.45491 1858 ft 108 kts 163°
2026-05-05 11:09 51.13693 4.46016 2074 ft 106 kts 167°
2026-05-05 11:10 51.13027 4.45577 2078 ft 118 kts 236°
2026-05-05 11:10 51.12749 4.44307 2040 ft 125 kts 264°
2026-05-05 11:10 51.12706 4.42938 1997 ft 123 kts 271°
2026-05-05 11:10 51.12693 4.41566 2113 ft 119 kts 268°
2026-05-05 11:11 51.12714 4.40233 2067 ft 122 kts 272°
2026-05-05 11:11 51.12759 4.38917 2046 ft 121 kts 275°
2026-05-05 11:11 51.12805 4.37574 2019 ft 123 kts 273°
2026-05-05 11:11 51.12879 4.36218 2043 ft 122 kts 275°
2026-05-05 11:12 51.12968 4.34891 1995 ft 120 kts 277°
2026-05-05 11:12 51.13078 4.33564 1950 ft 121 kts 278°
2026-05-05 11:12 51.13175 4.32276 1989 ft 116 kts 273°
2026-05-05 11:12 51.13282 4.31000 1956 ft 120 kts 283°
2026-05-05 11:13 51.13483 4.29713 1913 ft 119 kts 271°
2026-05-05 11:13 51.13309 4.28429 1901 ft 118 kts 256°
2026-05-05 11:13 51.13140 4.27135 1902 ft 122 kts 256°
2026-05-05 11:13 51.12941 4.25844 1991 ft 119 kts 258°
2026-05-05 11:14 51.12784 4.24557 2029 ft 118 kts 261°
2026-05-05 11:14 51.12686 4.23267 2030 ft 118 kts 266°
2026-05-05 11:14 51.12663 4.21949 2011 ft 121 kts 269°
2026-05-05 11:14 51.12847 4.20630 2031 ft 122 kts 291°
2026-05-05 11:15 51.13186 4.19391 1967 ft 121 kts 294°
2026-05-05 11:15 51.13483 4.18104 1845 ft 127 kts 285°
2026-05-05 11:15 51.13673 4.16789 1881 ft 117 kts 283°
2026-05-05 11:15 51.13868 4.15568 1944 ft 112 kts 283°
2026-05-05 11:16 51.14139 4.14414 1989 ft 113 kts 308°
2026-05-05 11:16 51.14711 4.13528 1957 ft 117 kts 332°
2026-05-05 11:16 51.15523 4.13464 1955 ft 120 kts
2026-05-05 11:16 51.16349 4.13583 2007 ft 118 kts
2026-05-05 11:17 51.17165 4.13670 2056 ft 117 kts 356°
2026-05-05 11:17 51.17833 4.13040 2032 ft 118 kts 301°
2026-05-05 11:17 51.17883 4.11778 1964 ft 119 kts 249°
2026-05-05 11:17 51.17278 4.10924 1943 ft 120 kts 197°
2026-05-05 11:18 51.16473 4.11145 1908 ft 122 kts 149°
2026-05-05 11:18 51.16020 4.12193 1982 ft 118 kts 98°
2026-05-05 11:18 51.16277 4.13388 2051 ft 119 kts 41°
2026-05-05 11:18 51.17056 4.13711 2035 ft 121 kts 349°
2026-05-05 11:19 51.17876 4.13607 2032 ft 120 kts 358°
2026-05-05 11:19 51.18693 4.13805 2065 ft 117 kts 33°
2026-05-05 11:19 51.19110 4.14855 2052 ft 124 kts 81°
2026-05-05 11:19 51.18804 4.16105 1977 ft 127 kts 145°
2026-05-05 11:20 51.17989 4.16088 1917 ft 125 kts 218°
2026-05-05 11:20 51.17532 4.14914 1878 ft 122 kts 242°
2026-05-05 11:20 51.16953 4.14007 1928 ft 120 kts 206°
2026-05-05 11:20 51.16129 4.13887 1922 ft 122 kts 169°
2026-05-05 11:21 51.15423 4.14618 1891 ft 124 kts 136°
2026-05-05 11:21 51.14779 4.15456 1967 ft 119 kts 143°
2026-05-05 11:21 51.14123 4.16272 1968 ft 118 kts 143°
2026-05-05 11:21 51.13699 4.16828 2023 ft 116 kts 139°
2026-05-05 11:22 51.13139 4.17771 1976 ft 119 kts 126°
2026-05-05 11:22 51.12713 4.18913 1917 ft 122 kts 120°
2026-05-05 11:22 51.12293 4.20063 1958 ft 119 kts 118°
2026-05-05 11:22 51.12090 4.21329 1981 ft 120 kts 94°
2026-05-05 11:23 51.12086 4.22653 1968 ft 120 kts 91°
2026-05-05 11:23 51.12088 4.23974 1967 ft 119 kts 88°
2026-05-05 11:23 51.12134 4.25310 1904 ft 121 kts 88°
2026-05-05 11:23 51.12124 4.26636 1899 ft 119 kts 91°
2026-05-05 11:24 51.12101 4.27936 1926 ft 116 kts 90°
2026-05-05 11:24 51.12117 4.29223 1904 ft 117 kts 88°
2026-05-05 11:24 51.12145 4.30489 1904 ft 115 kts 89°
2026-05-05 11:24 51.12129 4.31790 1877 ft 118 kts 88°
2026-05-05 11:25 51.12139 4.33096 1859 ft 118 kts 92°
2026-05-05 11:25 51.12030 4.34369 1923 ft 116 kts 98°
2026-05-05 11:25 51.11926 4.35624 1943 ft 113 kts 97°
2026-05-05 11:25 51.11832 4.36868 2002 ft 114 kts 94°
2026-05-05 11:26 51.11835 4.38195 1953 ft 124 kts 88°
2026-05-05 11:26 51.11830 4.39568 1968 ft 120 kts 92°
2026-05-05 11:26 51.11954 4.40899 1953 ft 124 kts 69°
2026-05-05 11:26 51.12253 4.42199 1875 ft 126 kts 65°
2026-05-05 11:27 51.12862 4.43222 1788 ft 129 kts 27°
2026-05-05 11:27 51.13745 4.43678 1606 ft 135 kts 16°
2026-05-05 11:27 51.14634 4.44094 1476 ft 132 kts 14°
2026-05-05 11:27 51.15510 4.44468 1287 ft 129 kts 15°
2026-05-05 11:28 51.16384 4.44766 1155 ft 127 kts 14°
2026-05-05 11:28 51.17163 4.45327 1114 ft 122 kts 51°
2026-05-05 11:28 51.17264 4.46630 994 ft 111 kts 94°
2026-05-05 11:28 51.17186 4.47760 883 ft 104 kts 97°
2026-05-05 11:29 51.17465 4.48632 726 ft 93 kts 17°
2026-05-05 11:29 51.18082 4.48707 561 ft 87 kts 342°
2026-05-05 11:29 51.18552 4.48111 334 ft 90 kts 301°
2026-05-05 11:29 51.18789 4.47214 115 ft 81 kts 289°
2026-05-05 11:30 51.18965 4.46483 37 ft 58 kts 268°
2026-05-05 11:30 51.19070 4.45989 33 ft 36 kts 289°
2026-05-05 11:30 51.19112 4.45766 31 ft 13 kts 269°
2026-05-05 11:30 51.19072 4.45648 32 ft 17 kts 231°
2026-05-05 11:31 51.18998 4.45495 33 ft 16 kts 229°
2026-05-05 11:31 51.18948 4.45400 34 ft 7 kts 212°
2026-05-05 11:31 51.18905 4.45416 34 ft 9 kts 144°
2026-05-05 11:31 51.18845 4.45455 34 ft 8 kts 170°
2026-05-05 11:32 51.18794 4.45477 34 ft 7 kts 160°
2026-05-05 11:32 51.18764 4.45468 34 ft 6 kts 229°
2026-05-05 11:32 51.18741 4.45418 34 ft 5 kts 246°
2026-05-05 11:32 51.18765 4.45388 34 ft 4 kts 327°
2026-05-05 11:33 51.18775 4.45377 34 ft 0 kts 327°